2023/01/25 00:00:00,54.6,-6.3
2023/01/25 00:10:00,55.6,-6.5
2023/01/25 00:20:00,56.7,-6.4
2023/01/25 00:30:00,56.8,-6.7
2023/01/25 00:40:00,57.2,-6.6
2023/01/25 00:50:00,57.5,-6.9
2023/01/25 01:00:00,58.5,-6.9
2023/01/25 01:10:00,60.5,-6.9
2023/01/25 01:20:00,60.8,-6.7
2023/01/25 01:30:00,61.9,-6.9
2023/01/25 01:40:00,62.6,-6.7
2023/01/25 01:50:00,63.2,-6.9
2023/01/25 02:00:00,63.7,-6.7
2023/01/25 02:10:00,64.0,-6.9
2023/01/25 02:20:00,64.7,-6.9
2023/01/25 02:30:00,65.2,-6.9
2023/01/25 02:40:00,65.5,-7.1
2023/01/25 02:50:00,65.7,-6.9
2023/01/25 03:00:00,65.9,-6.7
2023/01/25 03:10:00,66.6,-7.0
2023/01/25 03:20:00,67.1,-7.0
2023/01/25 03:30:00,67.6,-6.7
2023/01/25 03:40:00,67.8,-6.9
2023/01/25 03:50:00,67.9,-6.8
2023/01/25 04:00:00,68.4,-6.9
2023/01/25 04:10:00,69.2,-6.9
2023/01/25 04:20:00,69.5,-7.0
2023/01/25 04:30:00,69.9,-6.6
2023/01/25 04:40:00,70.4,-6.9
2023/01/25 04:50:00,72.0,-6.9
2023/01/25 05:00:00,73.3,-6.9
2023/01/25 05:10:00,74.9,-6.9
2023/01/25 05:20:00,75.3,-6.5
2023/01/25 05:30:00,75.8,-6.7
2023/01/25 05:40:00,77.7,-6.5
2023/01/25 05:50:00,78.6,-6.8
2023/01/25 06:00:00,78.9,-6.5
2023/01/25 06:10:00,78.7,-6.6
2023/01/25 06:20:00,78.6,-6.4
2023/01/25 06:30:00,78.4,-6.4
2023/01/25 06:40:00,77.8,-6.6
2023/01/25 06:50:00,77.3,-6.9
2023/01/25 07:00:00,76.9,-6.9
2023/01/25 07:10:00,76.4,-7.0
2023/01/25 07:20:00,76.0,-6.9
2023/01/25 07:30:00,75.5,-6.9
2023/01/25 07:40:00,75.0,-6.8
2023/01/25 07:50:00,74.7,-6.8
2023/01/25 08:00:00,74.4,-6.3
2023/01/25 08:10:00,74.2,-6.4
2023/01/25 08:20:00,74.1,-6.1
2023/01/25 08:30:00,73.6,-6.5
2023/01/25 08:40:00,73.4,-6.0
2023/01/25 08:50:00,73.1,-5.9
2023/01/25 09:00:00,73.4,-5.8
2023/01/25 09:10:00,73.6,-6.1
2023/01/25 09:20:00,73.8,-5.7
2023/01/25 09:30:00,74.6,-5.8
2023/01/25 09:40:00,75.1,-5.6
2023/01/25 09:50:00,75.8,-5.5
2023/01/25 10:00:00,76.6,-4.9
2023/01/25 10:10:00,76.5,-4.1
2023/01/25 10:20:00,76.3,-4.1
2023/01/25 10:30:00,76.7,-4.2
2023/01/25 10:40:00,76.4,-4.0
2023/01/25 10:50:00,76.2,-3.6
2023/01/25 11:00:00,75.8,-3.3
2023/01/25 11:10:00,75.6,-3.6
2023/01/25 11:20:00,75.5,-4.0
2023/01/25 11:30:00,75.4,-3.7
2023/01/25 11:40:00,75.3,-3.8
2023/01/25 11:50:00,75.3,-3.3
2023/01/25 12:00:00,74.9,-3.4
2023/01/25 12:10:00,74.7,-4.4
2023/01/25 12:20:00,74.9,-3.8
2023/01/25 12:30:00,74.7,-3.0
2023/01/25 12:40:00,74.4,-3.2
2023/01/25 12:50:00,74.2,-3.3
2023/01/25 13:00:00,74.0,-2.8
2023/01/25 13:10:00,73.6,-2.9
2023/01/25 13:20:00,73.5,-3.0
2023/01/25 13:30:00,72.9,-2.9
2023/01/25 13:40:00,72.9,-3.0
2023/01/25 13:50:00,72.8,-3.2
2023/01/25 14:00:00,72.6,-3.2
2023/01/25 14:10:00,72.3,-3.2
2023/01/25 14:20:00,72.0,-3.1
2023/01/25 14:30:00,71.9,-2.5
2023/01/25 14:40:00,71.7,-2.1
2023/01/25 14:50:00,71.5,-2.6
2023/01/25 15:00:00,71.3,-2.3
2023/01/25 15:10:00,71.3,-2.1
2023/01/25 15:20:00,71.2,-2.7
2023/01/25 15:30:00,70.8,-3.0
2023/01/25 15:40:00,70.6,-2.7
2023/01/25 15:50:00,70.4,-3.1
2023/01/25 16:00:00,70.2,-3.2
2023/01/25 16:10:00,70.0,-3.1
2023/01/25 16:20:00,69.9,-3.1
2023/01/25 16:30:00,69.7,-3.4
2023/01/25 16:40:00,69.5,-3.4
2023/01/25 16:50:00,69.3,-3.5
2023/01/25 17:00:00,68.9,-3.5
2023/01/25 17:10:00,68.9,-3.9
2023/01/25 17:20:00,68.8,-3.6
2023/01/25 17:30:00,68.7,-4.0
2023/01/25 17:40:00,68.6,-3.7
2023/01/25 17:50:00,68.5,-4.0
2023/01/25 18:00:00,68.3,-4.1
2023/01/25 18:10:00,68.1,-4.1
2023/01/25 18:20:00,67.8,-4.1
2023/01/25 18:30:00,67.5,-4.1
2023/01/25 18:40:00,67.2,-4.1
2023/01/25 18:50:00,67.0,-4.2
2023/01/25 19:00:00,66.8,-4.1
2023/01/25 19:10:00,66.6,-4.2
2023/01/25 19:20:00,66.5,-4.3
2023/01/25 19:30:00,66.3,-4.2
2023/01/25 19:40:00,66.1,-4.3
2023/01/25 19:50:00,66.0,-4.2
2023/01/25 20:00:00,65.9,-4.2
2023/01/25 20:10:00,66.1,-4.1
2023/01/25 20:20:00,66.3,-4.4
2023/01/25 20:30:00,66.6,-4.3
2023/01/25 20:40:00,66.6,-4.3
2023/01/25 20:50:00,66.5,-4.2
2023/01/25 21:00:00,66.4,-4.3
2023/01/25 21:10:00,66.2,-4.5
2023/01/25 21:20:00,66.0,-4.8
2023/01/25 21:30:00,65.9,-4.9
2023/01/25 21:40:00,65.6,-4.6
2023/01/25 21:50:00,65.4,-4.7
2023/01/25 22:00:00,65.2,-5.2
2023/01/25 22:10:00,65.1,-5.4
2023/01/25 22:20:00,65.1,-5.9
2023/01/25 22:30:00,65.0,-5.8
2023/01/25 22:40:00,64.7,-6.2
2023/01/25 22:50:00,64.4,-6.3
2023/01/25 23:00:00,64.2,-6.3
2023/01/25 23:10:00,64.0,-6.3
2023/01/25 23:20:00,63.8,-6.5
2023/01/25 23:30:00,63.8,-6.5
2023/01/25 23:40:00,63.7,-6.7
2023/01/25 23:50:00,63.5,-6.5
